Regional Weather Roundup
Issued by NWS

Home | Current Version | Previous Version | Graphics & Text | Print | Product List | Glossary On
Versions: 1 2 3 4 5 6 7 8 9 10 11 12 13 14 15 16 17 18 19 20 21 22 23 24 25 26 27 28 29 30 31 32 33 34 35 36 37 38 39 40 41 42 43 44 45 46 47 48 49 50
000
ASUS43 KTOP 201059
RWRKS

WEATHER ROUNDUP FOR KANSAS
NATIONAL WEATHER SERVICE GOODLAND KS
500 AM CST FRI JAN 20 2017

NOTE:  "FAIR" INDICATES FEW OR NO CLOUDS BELOW 12,000 FEET WITH NO
SIGNIFICANT WEATHER AND/OR OBSTRUCTIONS TO VISIBILITY.

KSZ001>006-013>018-027>032-041>047-201200-
NORTHWEST KANSAS

CITY           SKY/WX    TMP DP  RH WIND       PRES   REMARKS
GOODLAND       FOG       30  29  96 S10       29.46F VSB 3/4 WCI  21
HAYS           FOG       40  40 100 CALM      29.51F VSB 1/4
HILL CITY      FOG       38  38 100 CALM      29.50F VSB 1/4
RUSSELL        FOG       41  41 100 NE5       29.48F VSB 1/4
$$

KSZ061>065-074>080-084>089-201200-
SOUTHWEST KANSAS

CITY           SKY/WX    TMP DP  RH WIND       PRES   REMARKS
DODGE CITY     CLOUDY    37  35  92 N3        29.49F FOG
ELKHART          N/A     31  27  86 W2          N/A
GARDEN CITY    CLOUDY    36  34  92 N9        29.46F
GREAT BEND     LGT RAIN  42  41  96 S6        29.52R VSB 1/4
LIBERAL        CLOUDY    37  34  87 NW6       29.51S
$$

KSZ066>073-081>083-090>101-201200-
SOUTHEAST KANSAS

CITY           SKY/WX    TMP DP  RH WIND       PRES   REMARKS
CHANUTE        FOG       48  47  96 SE6       29.55F VSB 1
COFFEYVILLE    CLOUDY    48  47  96 E5        29.54F FOG
HUTCHINSON     FOG       44  43  96 E5        29.50F VSB 1/4
NEWTON         FOG       43  43 100 E6        29.51F VSB 1/4
PARSONS        CLOUDY    49  47  93 SE5       29.56S FOG
WICHITA INTL   FOG       46  45  96 SE6       29.51S VSB 1/4
WICHITA JABRA  FOG       45  45 100 S5        29.51F VSB 1/4
WICHITA MCCONL FOG       46  46 100 SE5       29.51S VSB 1/4
WINFIELD       CLOUDY    47  46  97 E6        29.50F
$$

KSZ007>012-019>026-033>040-048>060-102>105-201200-
NORTHEAST KANSAS

CITY           SKY/WX    TMP DP  RH WIND       PRES   REMARKS
CONCORDIA      FOG       40  40 100 SE6       29.54R VSB 1/2
EMPORIA        CLOUDY    44  44 100 E5        29.53F FOG
LAWRENCE       FOG       43  43 100 E3        29.57R VSB 1/4
MANHATTAN      FOG       44  43  96 CALM      29.56R VSB 1/2
OLATHE IND     FOG       45  45 100 SE6       29.57S VSB 1/2
OLATHE EXE     FOG       45  45 100 SE7       29.57S VSB 1/4
SALINA           N/A    N/A N/A N/A MISG        N/A
TOPEKA BILLARD FOG       45  43  93 CALM      29.57R VSB 1/2
TOPEKA FORBES  FOG       46  44  93 SE3       29.56R VSB 1/2
$$




USA.gov is the U.S. government's official web portal to all federal, state and local government web resources and services.